Regional Weather Roundup
Issued by NWS

Home | Current Version | Previous Version | Graphics & Text | Print | Product List | Glossary On
Versions: 1 2 3 4 5 6 7 8 9 10 11 12 13 14 15 16 17 18 19 20 21 22 23 24 25 26 27 28 29 30 31 32 33 34 35 36 37 38 39 40 41 42 43 44 45 46 47 48 49 50
977
ASUS43 KMPX 101801
RWRMN
WEATHER ROUNDUP FOR MINNESOTA
NATIONAL WEATHER SERVICE TWIN CITIES/CHANHASSEN MN
1200 PM CST WED FEB 10 2016


NOTE: "FAIR" INDICATES FEW OR NO CLOUDS BELOW 12,000 FEET WITH NO
SIGNIFICANT WEATHER AND/OR OBSTRUCTIONS TO VISIBILITY. N/A MEANS
CURRENT SKY AND/OR WEATHER CONDITIONS ARE NOT AVAILABLE.

MNZ060>063-068>070-101900-
   Twin Cities Metro

CITY           SKY/WX    TMP DP  RH WIND       PRES   REMARKS
TWIN CITIES    PTSUNNY    9  -4  55 VRB5      30.12F WCI   1
6HR MIN TEMP:   3; 6HR MAX TEMP:   9;

ST PAUL        CLOUDY     8  -5  55 NE6       30.15S WCI  -2
CRYSTAL        CLOUDY     9  -3  58 N8        30.12S WCI  -3
BLAINE         PTSUNNY    9  -2  61 N7        30.12S WCI  -3
LAKEVILLE      CLOUDY     9  -2  61 NE6       30.10F WCI  -1
EDEN PRAIRIE   CLOUDY    10  -4  53 NE6       30.11S WCI   0
6HR MIN TEMP:   4; 6HR MAX TEMP:  10;

SOUTH ST PAUL  CLOUDY     8  -4  57 CALM      30.12F
LAKE ELMO      FAIR       7  -4  61 N3        30.13S
$$
MNZ001>005-007-008-013>017-022>024-027-028-101900-
   Northwest Minnesota

CITY           SKY/WX    TMP DP  RH WIND       PRES   REMARKS
BEMIDJI        CLOUDY     1  -8  68 E5        30.11R WCI  -9
HALLOCK        CLOUDY     5  -4  66 E6        30.18S WCI  -6
ROSEAU         CLOUDY    -2  -9  71 E6        30.18F WCI -14
WARROAD        MOSUNNY   -6  -9  84 NE3       30.19S
THIEF RVR FALL PTSUNNY    3  -6  66 E6        30.16R WCI  -8
CROOKSTON      CLOUDY     7   0  72 E6        30.18R WCI  -3
FOSSTON          N/A      9   0  66 NE6       30.12S WCI  -1
DETROIT LAKES  CLOUDY    10   0  61 SE5       30.09R WCI   2
MOORHEAD       MIX PCPN  10   1  67 CALM      30.14R
PARK RAPIDS    CLOUDY     5  -7  57 NE5       30.08S WCI  -4
MAHNOMEN       MOCLDY     7  -2  66 E6        30.10R WCI  -4
$$
MNZ006-009>011-018-025>026-101900-
   North Central Minnesota

CITY           SKY/WX    TMP DP  RH WIND       PRES   REMARKS
BAUDETTE       CLOUDY    -5 -13  68 CALM      30.16R
FLAG ISLAND    CLOUDY    -6 -11  77 CALM      30.19S
INTL FALLS     SUNNY     -4 -14  62 N7        30.16S WCI -18
6HR MIN TEMP: -16; 6HR MAX TEMP:  -4; 6HR PCP: TRACE;

WASKISH        PTSUNNY    0  -9  65 NE3       30.14S
LONGVILLE      MOSUNNY    3  -8  60 NW5       30.10F WCI  -6
GRAND RAPIDS   SUNNY      0  -9  65 NW6       30.10S WCI -12
CRANE LAKE     SUNNY     -6 -15  65 NW3       30.17S
ORR            CLOUDY    -2 -15  55 CALM      30.09S
COOK           CLOUDY     0 -11  60 CALM      30.11S
WALKER         FAIR      -1 -10  66 SE5       30.11R WCI -12
$$
MNZ012-019>021-037-101900-
   Northeast Minnesota

CITY           SKY/WX    TMP DP  RH WIND       PRES   REMARKS
DULUTH         SUNNY      5  -9  52 N7        30.06F WCI  -7
6HR MIN TEMP: -11; 6HR MAX TEMP:   5;

ELY            SUNNY     -2 -13  60 NE3       30.09S
HIBBING        CLOUDY    -1 -10  65 N5        30.09F WCI -11
EVELETH        CLOUDY     1  -9  60 CALM      30.10F
DULUTH HARBOR  CLOUDY     7  -2  66 W7        30.16F WCI  -5
TWO HARBORS    SUNNY     10  -8  44 CALM      30.08S
SILVER BAY     SUNNY      9  -9  43 NE5       30.07F WCI   0
GRAND MARAIS     N/A      6 -10  47 VRB5      30.14F WCI  -3
G MARAIS ARPRT SUNNY     -2 -15  55 N13       29.99S WCI -21
$$
MNZ029>031-032-039>041-046>048-054>057-064-101900-
   West Central Minnesota

CITY           SKY/WX    TMP DP  RH WIND       PRES   REMARKS
FERGUS FALLS   CLOUDY     9   0  66 SE5       30.14R WCI   0
WHEATON        LGT SNOW  10   7  85 E10       30.12S WCI  -3
MORRIS         FLURRIES  10   3  72 SE8       30.09R WCI  -1
ALEXANDRIA     CLOUDY     7  -2  66 E9        30.07R WCI  -7
ELBOW LAKE     FAIR       9   0  67 SE7       30.10R WCI  -2
WADENA         CLOUDY     3  -4  72 E5        30.08R WCI  -6
GLENWOOD       CLOUDY     9   0  66 E7        30.08S WCI  -3
APPLETON       FLURRIES  10   5  79 E9        30.10R WCI  -2
BENSON         FLURRIES  12   1  62 CALM      30.10R
ORTONVILLE     FLURRIES  10   3  72 E8        30.08S WCI  -1
MADISON        CLOUDY    12   5  73 SE9       30.08S WCI   0
WILLMAR        FAIR      12   1  62 E7        30.10S WCI   2
$$
MNZ033>034-036-042>043-049>051-058-059-101900-
   Central Minnesota

CITY           SKY/WX    TMP DP  RH WIND       PRES   REMARKS
ST CLOUD       CLOUDY     7  -4  60 CALM      30.11F
6HR MIN TEMP:   1; 6HR MAX TEMP:   7;

SAUK CENTRE    FAIR       7  -2  67 E8        30.09S WCI  -6
PAYNESVILLE    CLOUDY     9  -1  63 E6        30.10S WCI  -1
AITKIN         MOSUNNY    3 -11  51 NE6       30.10R WCI  -8
PINE RIVER       N/A      1  -8  66 NE3       30.13S
BRAINERD       MOSUNNY    4  -8  57 NE3       30.11R
STAPLES        CLOUDY     5  -6  61 N6        30.09S WCI  -6
LONG PRAIRIE   CLOUDY     7  -2  66 NE3       30.09R
LITTLE FALLS   CLOUDY     7  -6  56 NW3       30.11F
LITCHFIELD     CLOUDY     9   1  72 E6        30.10R WCI  -1
BUFFALO        CLOUDY     8  -3  59 NE5       30.12F WCI   0
MAPLE LAKE     CLOUDY     9  -1  63 NE7       30.11F WCI  -2
$$
MNZ037-044-045-052-053-101900-
   East Central Minnesota

CITY           SKY/WX    TMP DP  RH WIND       PRES   REMARKS
PRINCETON      MOSUNNY    7  -4  61 N5        30.12S WCI  -2
MORA           MOSUNNY    7  -6  56 CALM      30.13F
CAMBRIDGE      SUNNY      7  -6  56 CALM      30.11F
RUSH CITY      CLOUDY     4  -5  66 NW5       30.13F WCI  -6
MOOSE LAKE     SUNNY      5  -9  51 CALM      30.10S
HINCKLEY       FAIR       7  -6  56 E3        30.12F
CLOQUET        SUNNY      1 -11  55 NE3       30.08F
MCGREGOR       SUNNY      3  -8  60 CALM      30.11S
$$
MNZ071>073-080-081-089-090-097-098-101900-
   Southwest Minnesota

CITY           SKY/WX    TMP DP  RH WIND       PRES   REMARKS
MONTEVIDEO     LGT SNOW  10   7  85 SE8       30.11S WCI  -1
GRANITE FALLS  LGT SNOW  12   7  79 SE6       30.10S WCI   3
CANBY          CLOUDY    15  10  79 SE12      30.07S WCI   2
MARSHALL       FLURRIES  11   5  77 E12       30.06S WCI  -3
REDWOOD FALLS  CLOUDY    10   4  76 SE7       30.09S WCI  -1
OLIVIA         CLOUDY    12   3  67 SE7       30.08F WCI   2
PIPESTONE      LGT SNOW  16   5  62 SE13      29.96F WCI   2
WINDOM         LGT SNOW  10   5  79 E8        30.03F WCI  -1
WORTHINGTON    CLOUDY    10   5  79 E12       30.00F WCI  -4
JACKSON        LGT SNOW  12   5  73 E8        30.03F WCI   1
TRACY          FLURRIES  12   7  80 E9        30.04F WCI  -1
SLAYTON        FLURRIES  11   8  88 E10       30.01S WCI  -2
$$
MNZ065>067-074>077-082>085-091>093-101900-
   South Central Minnesota

CITY           SKY/WX    TMP DP  RH WIND       PRES   REMARKS
MANKATO        CLOUDY     9   0  66 E3        30.09F
NEW ULM        CLOUDY     9   0  66 E5        30.09S WCI   0
ST JAMES       FLURRIES  10   3  72 E3        30.09F
FAIRMONT       CLOUDY     9   1  72 E6        30.05F WCI  -1
GLENCOE        PTSUNNY   10   1  69 CALM      30.11S
FARIBAULT        N/A      9  -2  61 N3        30.09F
OWATONNA       CLOUDY     9  -4  56 CALM      30.07F
WASECA         CLOUDY    10   1  67 N3        30.09F
ALBERT LEA     CLOUDY     9   0  66 NE3       30.06F
$$
MNZ078>079-086>088-094>096-101900-
   Southeast Minnesota

CITY           SKY/WX    TMP DP  RH WIND       PRES   REMARKS
ROCHESTER      CLOUDY     7  -4  60 NW6       30.05F WCI  -3
6HR MIN TEMP:  -2; 6HR MAX TEMP:   7;

RED WING       CLOUDY     7  -6  56 NE5       30.11F WCI  -2
STANTON        CLOUDY     8  -2  63 NE5       30.10S WCI   0
DODGE CENTER   MOSUNNY   12   0  57 CALM      30.05F
WINONA         CLOUDY    10   0  61 W5        30.12F WCI   2
AUSTIN         CLOUDY     7   0  72 N3        30.06F
PRESTON        CLOUDY     6  -4  62 CALM      30.06F
$$
ABBREVIATIONS USED IN REMARKS
   TC - TEMPERATURES IN CELSIUS
  WCI - WIND CHILL INDEX
   HX - HEAT INDEX
  VSB - VISIBILITY
$$




USA.gov is the U.S. government's official web portal to all federal, state and local government web resources and services.